�������r�C�����j�^�v���󋵏��
Date,Time,5�C6���@���p�r�C��,����,����(m/s)
2024/03/20,00:00,3.8,��쐼,4.5
2024/03/20,00:10,3.7,��쐼,4.5
2024/03/20,00:20,3.7,��쐼,4.7
2024/03/20,00:30,3.6,��쐼,4.8
2024/03/20,00:40,3.8,��쐼,5.1
2024/03/20,00:50,3.6,�쐼,5.7
2024/03/20,01:00,3.8,��쐼,6.6
2024/03/20,01:10,3.8,��쐼,7.0
2024/03/20,01:20,3.7,�쐼,5.1
2024/03/20,01:30,3.8,���쐼,2.3
2024/03/20,01:40,3.8,-,CALM
2024/03/20,01:50,3.7,��,0.9
2024/03/20,02:00,3.7,�쐼,1.7
2024/03/20,02:10,3.8,���쐼,1.2
2024/03/20,02:20,3.8,��,0.6
2024/03/20,02:30,3.9,�쐼,0.6
2024/03/20,02:40,3.8,�k��,0.9
2024/03/20,02:50,3.8,�k��,1.9
2024/03/20,03:00,3.8,���k��,2.2
2024/03/20,03:10,3.8,���k��,2.0
2024/03/20,03:20,3.8,��,2.5
2024/03/20,03:30,3.6,���쐼,2.2
2024/03/20,03:40,3.9,���k��,2.3
2024/03/20,03:50,3.8,��,1.9
2024/03/20,04:00,3.9,���k��,2.2
2024/03/20,04:10,3.8,���k��,2.3
2024/03/20,04:20,3.8,���k��,2.2
2024/03/20,04:30,3.9,���k��,1.1
2024/03/20,04:40,3.8,��,1.1
2024/03/20,04:50,3.8,�k��,1.5
2024/03/20,05:00,3.7,�k��,1.8
2024/03/20,05:10,3.9,�k��,2.2
2024/03/20,05:20,3.6,���k��,1.7
2024/03/20,05:30,3.7,���k��,1.7
2024/03/20,05:40,3.8,���k��,1.5
2024/03/20,05:50,3.7,�k��,2.2
2024/03/20,06:00,3.7,�k�k��,3.1
2024/03/20,06:10,3.7,�k��,3.9
2024/03/20,06:20,3.7,�k��,4.3
2024/03/20,06:30,3.7,�k�k��,4.2
2024/03/20,06:40,3.8,�k�k��,5.3
2024/03/20,06:50,3.7,�k�k��,5.7
2024/03/20,07:00,3.8,�k�k��,5.6
2024/03/20,07:10,3.7,�k�k��,5.9
2024/03/20,07:20,3.8,�k�k��,6.6
2024/03/20,07:30,3.7,�k�k��,6.9
2024/03/20,07:40,3.8,�k�k��,6.6
2024/03/20,07:50,3.8,�k�k��,6.3
2024/03/20,08:00,3.8,�k�k��,5.8
2024/03/20,08:10,3.9,�k,4.8
2024/03/20,08:20,3.8,�k�k��,5.2
2024/03/20,08:30,3.8,�k,4.8
2024/03/20,08:40,3.7,�k,4.4
2024/03/20,08:50,3.9,�k,4.4
2024/03/20,09:00,3.9,�k,4.8
2024/03/20,09:10,3.7,�k,4.5
2024/03/20,09:20,3.7,�k�k��,6.2
2024/03/20,09:30,3.9,�k,5.6
2024/03/20,09:40,3.8,�k�k��,5.1
2024/03/20,09:50,3.7,�k�k��,6.5
2024/03/20,10:00,3.8,�k�k��,5.9
2024/03/20,10:10,3.8,�k�k��,6.1
2024/03/20,10:20,3.8,�k�k��,6.9
2024/03/20,10:30,3.9,�k��,6.6
2024/03/20,10:40,4.0,�k��,6.3
2024/03/20,10:50,3.9,�k�k��,7.6
2024/03/20,11:00,3.9,�k��,6.8
2024/03/20,11:10,3.8,�k��,7.0
2024/03/20,11:20,4.0,�k��,6.7
2024/03/20,11:30,3.7,�k��,4.4
2024/03/20,11:40,3.8,�k��,6.8
2024/03/20,11:50,3.9,�k��,6.3
2024/03/20,12:00,3.9,�k��,5.9
2024/03/20,12:10,3.7,�k��,6.1
2024/03/20,12:20,3.8,�k�k��,4.2
2024/03/20,12:30,4.0,�k�k��,5.1
2024/03/20,12:40,3.8,�k�k��,6.8
2024/03/20,12:50,3.9,�k�k��,7.3
2024/03/20,13:00,3.8,�k,7.0
2024/03/20,13:10,3.8,�k,8.7
2024/03/20,13:20,3.7,�k,8.5
2024/03/20,13:30,3.7,�k�k��,9.1
2024/03/20,13:40,3.8,�k�k��,9.1
2024/03/20,13:50,3.7,�k�k��,9.7
2024/03/20,14:00,3.6,�k�k��,8.5
2024/03/20,14:10,3.6,�k,7.4
2024/03/20,14:20,3.9,�k�k��,10.6
2024/03/20,14:30,3.8,�k�k��,10.2
2024/03/20,14:40,3.7,�k�k��,8.8
2024/03/20,14:50,3.8,�k�k��,10.0
2024/03/20,15:00,3.8,�k�k��,11.0
2024/03/20,15:10,3.8,�k�k��,9.6
2024/03/20,15:20,3.8,�k�k��,8.8
2024/03/20,15:30,3.8,�k�k��,11.9
2024/03/20,15:40,3.8,�k�k��,8.2
2024/03/20,15:50,3.8,�k�k��,7.9
2024/03/20,16:00,3.8,�k�k��,10.2
2024/03/20,16:10,3.9,�k�k��,8.0
2024/03/20,16:20,3.8,�k�k��,9.7
2024/03/20,16:30,3.9,�k�k��,9.4
2024/03/20,16:40,3.8,�k�k��,10.6
2024/03/20,16:50,4.0,�k�k��,9.9
2024/03/20,17:00,3.7,�k�k��,10.7
2024/03/20,17:10,3.8,�k�k��,8.5
2024/03/20,17:20,3.7,�k�k��,9.0
2024/03/20,17:30,3.7,�k�k��,10.3
2024/03/20,17:40,3.6,�k�k��,10.2
2024/03/20,17:50,3.8,�k�k��,10.2
2024/03/20,18:00,3.7,�k�k��,9.0
2024/03/20,18:10,3.6,�k�k��,9.7
2024/03/20,18:20,3.8,�k�k��,10.5
2024/03/20,18:30,3.8,�k�k��,10.7
2024/03/20,18:40,3.6,�k�k��,10.0
2024/03/20,18:50,3.8,�k�k��,11.1
2024/03/20,19:00,3.6,�k�k��,9.9
2024/03/20,19:10,3.9,�k�k��,9.7
2024/03/20,19:20,3.6,�k�k��,9.7
2024/03/20,19:30,3.8,�k�k��,8.9
2024/03/20,19:40,3.7,�k��,7.3
2024/03/20,19:50,3.8,�k�k��,5.8
2024/03/20,20:00,3.9,�k��,7.6
2024/03/20,20:10,3.9,�k�k��,8.7
2024/03/20,20:20,3.7,�k�k��,8.9
2024/03/20,20:30,3.7,�k�k��,8.7
2024/03/20,20:40,3.7,�k�k��,9.2
2024/03/20,20:50,3.6,�k�k��,8.1
2024/03/20,21:00,3.7,�k�k��,9.2
2024/03/20,21:10,3.7,�k�k��,8.2
2024/03/20,21:20,3.9,�k�k��,8.3
2024/03/20,21:30,3.8,�k,7.6
2024/03/20,21:40,3.9,�k�k��,9.2
2024/03/20,21:50,3.8,�k�k��,10.7
2024/03/20,22:00,3.9,�k�k��,10.0
2024/03/20,22:10,3.8,�k�k��,9.6
2024/03/20,22:20,3.8,�k�k��,10.5
2024/03/20,22:30,3.7,�k�k��,10.2
2024/03/20,22:40,3.8,�k�k��,8.8
2024/03/20,22:50,3.8,�k�k��,9.5
2024/03/20,23:00,3.6,�k�k��,7.9
2024/03/20,23:10,3.8,�k�k��,7.3
2024/03/20,23:20,3.6,�k�k��,9.6
2024/03/20,23:30,3.8,�k�k��,9.2
2024/03/20,23:40,3.8,�k�k��,8.8
2024/03/20,23:50,3.6,�k�k��,8.6
